Погода в Большекрепинской

Россия / Ростовская область     47°35′50″N   39°22′39″E
темп.,
°C
ветер,
м/с
пор.,
м/с
влажн.,
%
обл.,
%
осадки,
мм/ч
давл.,
гПа
погр.,
м
22 апреля, чт
чт2200:00+8юз36855 0.0 1021118
03:00+8юз33935 0.0 102154
06:00+8ююз22935 0.0 102234
09:00+13юз237434 0.0 1022538
12:00+16ююз445843 0.4 10221317
15:00+17юз445253 0.6 10211563
18:00+15зюз3560100 0.1 1021332
21:00+12зюз3670100 0.1 1022156
23 апреля, пт
пт2300:00+11юз3572100 0.0 1022155
03:00+8юз35820 0.0 1023104
06:00+8юз34890 0.0 1023109
09:00+13зюз45705 0.0 1023611
12:00+16юз66578 0.1 10221509
15:00+17юз77485 0.2 10201712
18:00+14юз5760100 0.0 1020828
21:00+11зюз4971100 0.0 1020228
24 апреля, сб
сб2400:00+10юз41079100 0.0 1018356
03:00+10юз5118162 0.0 1017417
06:00+9юз499155 0.0 1016279
09:00+13зюз71070100 0.4 1017973
12:00+13з6106799 0.7 10171389
15:00+13з59518 1.0 10171752
18:00+13юз710616 0.1 1017783
21:00+9зюз510705 0.1 1019226
25 апреля, вс
вс2500:00+7сз6126821 0.0 1020667
03:00+5зсз3865100 0.0 1021252
06:00+4зсз3870100 0.0 1022346
09:00+7сз3452100 0.0 1022900
12:00+10сз3341100 0.0 10221639
15:00+11сз2238100 0.0 10211762
18:00+11ссз1141100 0.0 10211674
21:00+8ююв1150100 0.0 102110
26 апреля, пн
пн2600:00+7ююв1157100 0.0 102010
03:00+5ссз1161100 0.0 102010
06:00+6всв2265100 0.0 101921
09:00+9в2355100 0.0 1019471
12:00+11юв2248100 0.0 10181259
15:00+13ю2244100 0.0 10161689
18:00+12юз44545 0.0 1016548
21:00+8зюз495959 0.0 1016190